Regional Weather Roundup
Issued by NWS Grand Forks, ND

Home | Current Version | Previous Version | Graphics & Text | Print | Product List | Glossary On
Versions: 1 2 3 4 5 6 7 8 9 10 11 12 13 14 15 16 17 18 19 20 21 22 23 24 25 26 27 28 29 30 31 32 33 34 35 36 37 38 39 40 41 42 43 44 45 46 47 48 49 50
000
ASUS43 KFGF 230731
RWRFGF
PRAIRIE TO PINES  WEATHER ROUNDUP
NATIONAL WEATHER SERVICE EASTERN NORTH DAKOTA/GRAND FORKS ND
200 AM CDT SAT AUG 23 2014

 **SATELLITE DATA USED TO AUGMENT SKY COVER AT AUTOMATED STATIONS**
 *****  WEATHER ACROSS EASTERN NORTH DAKOTA  *****

CITY           SKY/WX    TMP DP  RH WIND       PRES   REMARKS
GRAND FORKS    CLOUDY    63  61  93 N10       30.07F
GRAND FRKS AFB CLOUDY    61  61 100 N9        30.09S
GRAND FRKS NWS   N/A     43 N/A N/A N2          N/A
DEVILS LAKE    CLOUDY    61  54  77 NE13      30.11S
FARGO          CLOUDY    66  63  90 N13       30.04F
WAHPETON ARPT  CLOUDY    66  63  88 N8        30.03S
$$

 ***** WEATHER ACROSS CENTRAL AND WESTERN NORTH DAKOTA  *****

CITY           SKY/WX    TMP DP  RH WIND       PRES   REMARKS
BISMARCK       CLOUDY    65  61  87 E14       30.07F
MINOT          CLOUDY    60  55  83 NE8       30.13F
JAMESTOWN      CLOUDY    63  59  87 NE9       30.07F
MINOT AFB      CLOUDY    59  59 100 NE8       30.14S
GARRISON         N/A     62  58  86 E12G21    30.11S
WILLISTON      CLOUDY    61  56  83 NE13      30.11F
DICKINSON      CLOUDY    62  61  96 E17       30.04F FOG
HETTINGER      CLOUDY    65  62  90 E15G26    30.02F
$$

 *****  OTHER AIRPORT OBSERVATIONS IN OUR AREA  *****

CITY           SKY/WX    TMP DP  RH WIND       PRES   REMARKS
WALHALLA         N/A     57  57 100 N14       30.13F
GRAFTON AIRPOR CLOUDY    61  61 100 N14       30.09F
VALLEY CITY AR CLOUDY    63  63 100 NE12G18   30.07F
CANDO          CLOUDY    57  57 100 NE9       30.15S FOG
CAVALIER APRT  CLOUDY    59  57  94 N12       30.11F
GWINNER        CLOUDY    66  66 100 NE12      30.05F
ROLLA          CLOUDY    55  55 100 NE12      30.16F
 ***** THE ABOVE OBSERVATIONS ARE NON NWS ARE NOT QUALITY
       CONTROLLED AND MAY MIS-REPORT RAIN FOR SNOW...
$$

  *****  WEATHER ACROSS NORTHERN MINNESOTA  *****

CITY           SKY/WX    TMP DP  RH WIND       PRES   REMARKS
FLAG ISLAND    CLOUDY    66  63  88 NW8       30.08S
WARROAD        FOG       63  59  88 N5        30.09F VSB 3/4
ROSEAU         CLOUDY    64  59  82 N6        30.08F
HALLOCK        CLOUDY    63  59  88 N13       30.08F FOG
THF RVR FALLS  CLOUDY    64  63  94 N13       30.06F
BAUDETTE       MOCLDY    63  62  97 N3        30.08S
WASKISH        CLOUDY    66  66 100 CALM      30.06F
CROOKSTON      DRIZZLE   63  63 100 N13       30.06F
$$
  *****  WEATHER ACROSS CENTRAL AND WEST MINNESOTA  *****

CITY           SKY/WX    TMP DP  RH WIND       PRES   REMARKS
FOSSTON        CLOUDY    66  64  94 N3        30.05F
BEMIDJI        FOG       64  64 100 NE3       30.05S VSB 1/2
PARK RAPIDS    FOG       66  66 100 CALM      30.03F VSB 1/2
ELBOW LAKE     CLOUDY    65  65  98 N3        30.03R
WADENA         FOG       66  64  94 N3        30.04R VSB 1/2
DETROIT LAKES  CLOUDY    68  64  88 CALM      30.05S FOG
MOORHEAD       CLOUDY    66  66 100 N8        30.05S
FERGUS FALLS   PTCLDY    64  63  94 CALM      30.03S FOG
MORRIS MN      MOCLDY    70  68  94 N6        30.00F
STAPLES        MOCLDY    66  64  94 CALM      30.03F
$$
  *****  WEATHER ELSEWHERE ACROSS MINNESOTA  *****

CITY           SKY/WX    TMP DP  RH WIND       PRES   REMARKS
DULUTH         PTCLDY    60  58  92 E3        30.06F FOG
INTRNTL FALLS  PTCLDY    59  59 100 CALM      30.06F FOG
ELY            CLOUDY    64  63  94 CALM      30.08S
CLOQUET        CLEAR     61  59  94 E3        30.05F FOG
WHEATON        FOG       64  63  94 N8        30.04S VSB 1/2
BRAINERD       MOCLDY    65  64  97 CALM      30.04F
HIBBING        CLOUDY    65  62  90 CALM      30.06F
ALEXANDRIA     MOCLDY    70  68  93 CALM      30.04F
SAINT CLOUD    PTCLDY    68  65  90 NE6       30.01F
MINNEAPOLIS    PTCLDY    70  68  93 CALM      29.99F
$$

  *****  WEATHER ACROSS SOUTH DAKOTA  *****

CITY           SKY/WX    TMP DP  RH WIND       PRES   REMARKS
SIOUX FALLS    CLOUDY    72  68  87 E7        29.96F
BROOKINGS      NOT AVBL
WATERTOWN      CLOUDY    67  66  97 NE10      30.00F
HURON          CLOUDY    72  68  87 E13       29.94F
SISSETON         N/A     66  66 100 NE9       30.02F
ABERDEEN       MOCLDY    65  64  97 NE10G20   30.01F
MITCHELL       CLOUDY    73  70  90 E9        29.93F
PIERRE         CLOUDY    69  68  96 E10       29.92F
MOBRIDGE       LGT RAIN  67  65  93 E16G26    29.97F
RAPID CITY     LGT RAIN  66  64  93 E12       29.96F
$$

  *****  SOME WEATHER IN NEARBY STATES *****

CITY           SKY/WX    TMP DP  RH WIND       PRES   REMARKS
GLASGOW MT     CLOUDY    61  53  75 NE17      30.08F
GREAT FALLS MT CLOUDY    49  48  97 NW20      30.13F
CHEYENNE WY    CLOUDY    57  55  93 SW9       30.05F
SCOTTSBLUFF NE CLOUDY    63  60  90 E5        29.97F
OMAHA NE       TSTM      72  69  90 NW20      29.95F FOG
DES MOINES IA  CLOUDY    78  75  90 E5        29.92F FOG
DAVENPORT IA   MOCLDY    74  72  93 CALM      29.95S
CHICAGO IL     CLOUDY    76  70  82 N5        29.97R
EAU CLAIRE WI  CLOUDY    70  69  97 N6        29.99S
LA CROSSE WI   MOCLDY    73  70  90 N6        29.96F
$$

  *****  SOME NATIONAL WEATHER *****

CITY           SKY/WX    TMP DP  RH WIND       PRES   REMARKS
LA GUARDIA NY  PTCLDY    68  59  73 E10       30.04F
RALEIGH NC     MOCLDY    76  72  87 CALM      29.95F
ATLANTA GA     PTCLDY    78  71  79 NW7       30.01F
NEW ORLEANS LA PTCLDY    82  76  81 SW8       30.01F
OKLAHOMA CITY  CLEAR     77  61  57 S10       29.95R
ALBUQUERQUE NM MOCLDY    59  56  89 SE5       30.18S
SALT LAKE CITY CLOUDY    60  53  77 NE9       30.00F
LOS ANGELES CA CLOUDY    68  62  81 VRB5      29.96S
BOISE ID       PTCLDY    62  44  51 S5        29.99R
SEATTLE WA     CLEAR     64  55  72 N3        30.11S
$$

*** WEATHER ACROSS MANITOBA...SASKATCHEWAN AND ONTARIO ***
                ***ONTARIO***

CITY           SKY/WX    TMP DP  RH WIND       PRES   REMARKS
GERALDTON      CLEAR     59  59 100 CALM      30.09F
THUNDER BAY    CLOUDY    63  61  94 CALM      30.07F
SIOUX LOOKOUT  MOCLDY    64  63  94 E2        30.09S
TORONTO        CLOUDY    68  66  94 NE6       30.03F
BIG TROUT LK   CLOUDY    46  45  93 N8        30.22R
PICKLE LAKE    NOT AVBL
DRYDEN         CLOUDY    64  63  94 NE2       30.10S
KENORA         CLOUDY    66  64  94 N6        30.10S
$$
                *** MANITOBA***

CITY           SKY/WX    TMP DP  RH WIND       PRES   REMARKS
BRANDON        CLOUDY    57  54  88 NE8       30.21S
DAUPHIN        CLOUDY    55  55 100 N6        30.24S
ISLAND LAKE    CLOUDY    48  46  93 NE10      30.30S
PILOT MOUND      N/A     55  55 100 N8          N/A
THE PAS        CLEAR     55  50  82 NE6       30.34S
THOMPSON       CLEAR     45  43  93 NE8       30.41R
WINNIPEG       CLOUDY    57  55  94 N8        30.16R
LYNN LAKE      CLOUDY    50  45  81 MISG      30.42R
CHURCHILL      CLOUDY    48  43  81 N12       30.43R
GILLAM         CLEAR     46  41  81 N15       30.40R
$$
                ***SASKATCHEWAN***

CITY           SKY/WX    TMP DP  RH WIND       PRES   REMARKS
ESTEVAN        MOCLDY    57  52  82 E12       30.19F
KINDERSLEY     CLOUDY    52  48  87 N10       30.29F
LLOYDMINSTER   MOCLDY    48  43  81 N6        30.35F
PRINCE ALBERT  MOCLDY    54  52  94 NE6       30.31F
REGINA         CLOUDY    55  52  88 NE9       30.22F
YORKTON        CLOUDY    52  50  93 N7        30.27S
N. BATTLEFORD  MOCLDY    50  48  93 N2        30.33F
LA RONGE       CLEAR     50  48  93 CALM      30.36
SASKATOON      CLOUDY    55  54  94 NE9       30.30S
SWIFT CURRENT  LGT RAIN  54  54 100 E12       30.21F
$$
NOTE: THESE ARE AUTOMATED STATIONS WITH LIMITED QUALITY CONTROL
      "FAIR" INDICATES FEW OR NO CLOUDS BELOW 12,000 FEET WITH NO
      SIGNIFICANT WEATHER AND/OR OBSTRUCTIONS TO VISIBILITY.
      SKY/WX - SKY CONDITION AND SIGNIFICANT WEATHER.
      TMP - AIR TEMPERATURE.    DP   - DEWPOINT TEMPERATURE.
      RH  - RELATIVE HUMIDITY.  PRES - PRESSURE.
      HX  - HEAT INDEX.         WCI  - WIND CHILL INDEX.
$


USA.gov is the U.S. government's official web portal to all federal, state and local government web resources and services.